DW7639 Weather Reports


time (UTC)temp
C
wind
direction
speed
KPH
gust
KPH
rain 1hr
cm
rain 24hr
cm
rain mn
cm
humidity
%
barometer
mb
20260504050517 2 230 0.0 0.0 0.00 0.00 0.00 84 1016.9
20260504045538 2 109 0.0 1.6 0.00 0.00 0.00 82 1016.9
20260504044517 2 82 0.0 1.6 0.00 0.00 0.00 82 1016.8
20260504043518 2 127 0.0 3.2 0.00 0.00 0.00 82 1016.8
20260504042538 2 152 0.0 1.6 0.00 0.00 0.00 83 1016.6
20260504041518 2 112 0.0 1.6 0.00 0.00 0.00 81 1016.6
20260504040518 2 114 0.0 1.6 0.00 0.00 0.00 81 1016.6
20260504035538 3 78 0.0 3.2 0.00 0.00 0.00 81 1016.5
20260504034518 3 28 0.0 1.6 0.00 0.00 0.00 79 1016.5
20260504033516 3 120 0.0 1.6 0.00 0.00 0.00 79 1016.5
20260504032516 3 107 0.0 1.6 0.00 0.00 0.00 79 1016.6
20260504031516 3 127 0.0 0.0 0.00 0.00 0.00 79 1016.6
20260504030516 3 108 0.0 0.0 0.00 0.00 0.00 77 1016.5
20260504025517 3 65 0.0 1.6 0.00 0.00 0.00 77 1016.8
20260504024537 3 58 0.0 0.0 0.00 0.00 0.00 75 1016.6
20260504023536 3 43 0.0 1.6 0.00 0.00 0.00 75 1016.6
20260504022537 4 81 0.0 1.6 0.00 0.00 0.00 74 1016.5
20260504021517 4 125 0.0 1.6 0.00 0.00 0.00 73 1016.5
20260504020517 5 121 0.0 1.6 0.00 0.00 0.00 72 1016.5
20260504015517 5 33 0.0 1.6 0.00 0.00 0.00 70 1016.3
20260504014518 5 118 0.0 1.6 0.00 0.00 0.00 69 1016.1
20260504013518 6 133 0.0 3.2 0.00 0.00 0.00 68 1015.9
20260504012518 6 120 0.0 1.6 0.00 0.00 0.00 65 1015.9
20260504011538 6 112 0.0 1.6 0.00 0.00 0.00 65 1015.8
20260504010518 7 121 0.0 0.0 0.00 0.00 0.00 62 1015.7
20260504005519 7 224 0.0 1.6 0.00 0.00 0.00 59 1015.5
20260504004516 8 118 0.0 3.2 0.00 0.00 0.00 58 1015.4
20260504003516 9 27 0.0 3.2 0.00 0.00 0.00 56 1015.3
20260504002536 10 124 0.0 1.6 0.00 0.00 0.00 53 1015.2
20260504001516 10 72 0.0 1.6 0.00 0.00 0.00 51 1015.1
20260504000516 11 120 0.0 1.6 0.00 0.00 0.00 47 1015.0
20260503235516 12 293 0.0 1.6 0.00 0.00 0.00 46 1015.0
20260503234519 12 203 0.0 1.6 0.00 0.00 0.00 43 1015.0
20260503233537 13 225 0.0 1.6 0.00 0.00 0.00 41 1015.0
20260503232517 13 131 1.6 6.4 0.00 0.00 0.00 37 1015.1
20260503231517 15 11 1.6 4.8 0.00 0.00 0.00 37 1015.0
20260503230517 16 23 1.6 4.8 0.00 0.00 0.00 32 1015.0
20260503225518 16 32 1.6 6.4 0.00 0.00 0.00 28 1015.0
20260503224518 16 289 1.6 4.8 0.00 0.00 0.00 29 1015.0
20260503223518 16 334 3.2 6.4 0.00 0.00 0.00 28 1015.0
20260503222518 16 332 1.6 6.4 0.00 0.00 0.00 29 1015.1
20260503221516 16 302 3.2 9.7 0.00 0.00 0.00 29 1015.2
20260503220536 16 322 1.6 4.8 0.00 0.00 0.00 29 1015.2
20260503215516 16 291 3.2 6.4 0.00 0.00 0.00 29 1015.2
20260503214516 16 331 1.6 4.8 0.00 0.00 0.00 30 1015.4
20260503213516 16 346 3.2 6.4 0.00 0.00 0.00 29 1015.4
20260503212556 16 327 3.2 6.4 0.00 0.00 0.00 28 1015.4
20260503211517 16 135 3.2 8.0 0.00 0.00 0.00 29 1015.4
20260503210536 16 172 3.2 9.7 0.00 0.00 0.00 29 1015.6
20260503205517 15 355 3.2 8.0 0.00 0.00 0.00 30 1015.5
20260503204517 15 145 3.2 8.0 0.00 0.00 0.00 29 1015.6
20260503203537 16 314 4.8 8.0 0.00 0.00 0.00 30 1015.8
20260503202517 16 353 3.2 6.4 0.00 0.00 0.00 32 1015.9
20260503201518 16 340 3.2 6.4 0.00 0.00 0.00 31 1016.1
20260503200518 16 127 3.2 11.3 0.00 0.00 0.00 32 1016.2
20260503195518 16 355 3.2 11.3 0.00 0.00 0.00 32 1016.3
20260503194521 15 348 3.2 8.0 0.00 0.00 0.00 31 1016.6
20260503193518 15 301 4.8 11.3 0.00 0.00 0.00 31 1016.7
20260503192519 15 312 3.2 11.3 0.00 0.00 0.00 31 1016.9
20260503191515 15 336 3.2 11.3 0.00 0.00 0.00 31 1017.0
20260503190516 15 1 3.2 12.9 0.00 0.00 0.00 31 1017.2
20260503185515 15 8 3.2 9.7 0.00 0.00 0.00 32 1017.3
20260503184516 15 288 4.8 14.5 0.00 0.00 0.00 32 1017.3
20260503183516 15 345 4.8 8.0 0.00 0.00 0.00 33 1017.6
20260503182542 14 23 3.2 11.3 0.00 0.00 0.00 33 1017.8
20260503181517 14 348 4.8 9.7 0.00 0.00 0.00 33 1017.8
20260503180516 14 20 4.8 14.5 0.00 0.00 0.00 34 1018.0
20260503175557 14 334 3.2 11.3 0.00 0.00 0.00 35 1018.2
20260503174517 13 15 3.2 16.1 0.00 0.00 0.00 34 1018.1
20260503173517 13 339 6.4 11.3 0.00 0.00 0.00 34 1018.2
20260503172518 13 344 4.8 12.9 0.00 0.00 0.00 33 1018.4
20260503171518 13 333 4.8 12.9 0.00 0.00 0.00 32 1018.6
20260503170518 13 39 1.6 8.0 0.00 0.00 0.00 35 1018.7
20260503150517 9 177 3.2 9.7 0.00 0.00 0.00 42 1019.6
20260503130542 6 27 3.2 8.0 0.00 0.00 0.00 57 1019.5
20260503110518 2 57 1.6 6.4 0.00 0.00 0.00 76 1017.9
20260503081518 0 170 0.0 4.8 0.00 0.00 0.00 93 1016.2
20260503080518 0 131 0.0 1.6 0.00 0.00 0.00 93 1016.1
20260503072536 0 107 0.0 3.2 0.00 0.00 0.00 93 1016.0